Location: New Town
(33.2710°N, 90.7534°W)
Time: 12:44:11
(UTC+00:00)

Explorer 11/Cluster Stage 4 - All Passes

Search period start: 13 May 2021 00:00
Search period end: 23 May 2021 00:00
Orbit: 467 x 1257 km, 28.8° (Epoch: 12 May)

Date Brightness Start Highest point End Pass type
(mag) Time Alt. Az. Time Alt. Az. Time Alt. Az.
13 May - 00:11:33 10° SSW 00:16:54 20° SSE 00:22:27 10° ESE daylight
13 May - 01:57:55 10° SW 02:05:32 43° SSE 02:13:01 10° E visible
13 May - 03:46:31 10° WSW 03:54:39 62° S 04:02:02 10° E visible
13 May - 05:35:59 10° W 05:43:44 57° S 05:50:20 10° ESE visible
13 May - 07:26:04 10° W 07:32:13 30° SSW 07:37:26 10° SE night (unlit)
13 May - 23:59:55 10° SSW 00:05:35 22° SSE 00:11:33 10° ESE daylight
14 May - 01:46:36 10° SW 01:54:14 47° SSE 02:01:56 10° E visible
14 May - 03:35:14 10° WSW 03:43:24 64° S 03:50:59 10° E visible
14 May - 05:24:42 10° W 05:32:32 55° SSW 05:39:19 10° ESE visible
14 May - 07:14:54 10° W 07:21:00 28° SSW 07:26:16 10° SSE night (unlit)
14 May - 23:48:24 10° SSW 23:54:16 25° SSE 00:00:35 10° E daylight
15 May - 01:35:19 10° WSW 01:42:57 50° SSE 01:50:48 10° E visible
15 May - 03:23:59 10° WSW 03:32:09 65° S 03:39:53 10° E visible
15 May - 05:13:26 10° W 05:21:18 52° SSW 05:28:14 10° ESE visible
15 May - 07:03:44 10° W 07:09:46 26° SSW 07:15:02 10° SSE night (unlit)
15 May - 23:36:59 10° SSW 23:42:58 27° SSE 23:49:31 10° E daylight
16 May - 01:24:05 10° WSW 01:31:39 53° SSE 01:39:37 10° E visible
16 May - 03:12:46 10° W 03:20:53 65° S 03:28:45 10° ESE visible
16 May - 05:02:11 10° W 05:10:02 50° SSW 05:17:07 10° ESE visible
16 May - 06:52:38 10° WSW 06:58:30 24° SSW 07:03:43 10° SSE night (unlit)
16 May - 23:25:39 10° SSW 23:31:40 30° SSE 23:38:24 10° E daylight
17 May - 01:12:55 10° WSW 01:20:22 56° SSE 01:28:25 10° E visible
17 May - 03:01:35 10° W 03:09:38 64° S 03:17:36 10° ESE visible
17 May - 04:50:57 10° W 04:58:45 47° SSW 05:05:56 10° SE visible
17 May - 06:41:36 10° WSW 06:47:13 21° SSW 06:52:19 10° SSE night (unlit)
17 May - 23:14:23 10° SW 23:20:24 32° SSE 23:27:14 10° E daylight
18 May - 01:01:46 10° WSW 01:09:07 58° S 01:17:11 10° E daylight
18 May - 02:50:25 10° W 02:58:22 63° S 03:06:25 10° ESE visible
18 May - 04:39:46 10° W 04:47:29 44° SSW 04:54:42 10° SE visible
18 May - 06:30:38 10° WSW 06:35:55 19° SSW 06:40:48 10° S night (unlit)
18 May - 21:19:24 10° SSE 21:21:16 11° SE 21:23:13 10° SE daylight
18 May - 23:03:12 10° SW 23:09:08 35° SSE 23:16:02 10° E daylight
19 May - 00:50:40 10° WSW 00:57:52 60° S 01:05:56 10° E daylight
19 May - 02:39:17 10° W 02:47:06 62° S 02:55:11 10° ESE visible
19 May - 04:28:37 10° W 04:36:11 41° SSW 04:43:26 10° SE visible
19 May - 06:19:46 10° WSW 06:24:36 17° SSW 06:29:09 10° S night (unlit)
19 May - 21:07:29 10° S 21:10:02 13° SE 21:12:47 10° ESE daylight
19 May - 22:52:03 10° SW 22:57:54 37° SSE 23:04:47 10° E daylight
20 May - 00:39:37 10° WSW 00:46:38 61° S 00:54:39 10° E daylight
20 May - 02:28:11 10° W 02:35:50 60° S 02:43:56 10° ESE visible
20 May - 04:17:29 10° W 04:24:52 38° SSW 04:32:06 10° SE visible
20 May - 06:09:05 10° WSW 06:13:17 15° SSW 06:17:20 10° S visible
20 May - 20:55:53 10° S 20:58:49 14° SE 21:02:03 10° ESE daylight
20 May - 22:40:59 10° SW 22:46:41 40° SSE 22:53:33 10° E daylight
21 May - 00:28:35 10° WSW 00:35:25 62° S 00:43:22 10° E daylight
21 May - 02:17:06 10° W 02:24:34 57° S 02:32:38 10° ESE visible
21 May - 04:06:26 10° W 04:13:33 34° SSW 04:20:41 10° SE visible
21 May - 05:58:38 10° WSW 06:01:58 13° SW 06:05:14 10° S visible
21 May - 20:44:26 10° S 20:47:38 16° SSE 20:51:11 10° ESE daylight
21 May - 22:29:56 10° SW 22:35:31 42° SSE 22:42:17 10° E daylight
22 May - 00:17:35 10° WSW 00:24:13 62° S 00:32:03 10° E daylight
22 May - 02:06:04 10° W 02:13:19 54° S 02:21:18 10° ESE visible
22 May - 03:55:25 10° W 04:02:15 31° SSW 04:09:11 10° SE visible
22 May - 05:48:48 10° SW 05:50:40 11° SW 05:52:30 10° SSW visible
22 May - 20:33:07 10° S 20:36:27 17° SSE 20:40:15 10° ESE daylight
22 May - 22:18:58 10° SW 22:24:21 44° SSE 22:31:00 10° E daylight
